Previsão horária em Abanosimovka

Hoje, 14 Abril, Quarta-feira

Tempo Temperatura Precipitação Vento Pressão Humidade
00:00 +12°C° 0 mm 4 m/s 755 mmHg 56%
01:00 +11°C° 0 mm 4 m/s 755 mmHg 59%
02:00 +10°C° 0 mm 4 m/s 754 mmHg 62%
03:00 +10°C° 0 mm 3 m/s 754 mmHg 65%
04:00 +9°C° 0 mm 3 m/s 754 mmHg 66%
05:00 +9°C° 0 mm 3 m/s 754 mmHg 66%
06:00 +8°C° 0 mm 3 m/s 754 mmHg 67%
07:00 +10°C° 0 mm 4 m/s 754 mmHg 59%
08:00 +12°C° 0 mm 4 m/s 753 mmHg 51%
09:00 +14°C° 0 mm 5 m/s 753 mmHg 44%
10:00 +15°C° 0 mm 5 m/s 753 mmHg 40%
11:00 +17°C° 0 mm 5 m/s 753 mmHg 36%
12:00 +19°C° 0 mm 6 m/s 752 mmHg 31%
13:00 +20°C° 0 mm 6 m/s 752 mmHg 29%
14:00 +20°C° 0 mm 6 m/s 752 mmHg 27%
15:00 +21°C° 0 mm 6 m/s 751 mmHg 25%
16:00 +21°C° 0 mm 5 m/s 751 mmHg 29%
17:00 +20°C° 0 mm 4 m/s 751 mmHg 33%
18:00 +19°C° 0 mm 4 m/s 750 mmHg 37%
19:00 +18°C° 0 mm 4 m/s 750 mmHg 42%
20:00 +16°C° 0 mm 3 m/s 750 mmHg 47%
21:00 +13°C° 0 mm 3 m/s 750 mmHg 52%
22:00 +13°C° 0 mm 3 m/s 750 mmHg 53%
23:00 +12°C° 0 mm 3 m/s 750 mmHg 55%

Amanhã, 15 Abril, Quinta-feira

Tempo Temperatura Precipitação Vento Pressão Humidade
00:00 +12°C° 0 mm 3 m/s 749 mmHg 57%
01:00 +11°C° 0 mm 3 m/s 749 mmHg 59%
02:00 +11°C° 0 mm 3 m/s 749 mmHg 61%
03:00 +10°C° 0 mm 3 m/s 749 mmHg 64%
04:00 +10°C° 0 mm 3 m/s 749 mmHg 65%
05:00 +10°C° 0 mm 3 m/s 749 mmHg 67%
06:00 +9°C° 0 mm 3 m/s 749 mmHg 69%
07:00 +11°C° 0 mm 3 m/s 749 mmHg 62%
08:00 +13°C° 0 mm 4 m/s 749 mmHg 56%
09:00 +15°C° 0 mm 4 m/s 749 mmHg 50%
10:00 +17°C° 0 mm 4 m/s 749 mmHg 46%
11:00 +19°C° 0 mm 4 m/s 748 mmHg 41%
12:00 +20°C° 0 mm 4 m/s 748 mmHg 37%
13:00 +20°C° 0 mm 4 m/s 748 mmHg 36%
14:00 +21°C° 0 mm 4 m/s 748 mmHg 34%
15:00 +21°C° 0 mm 3 m/s 748 mmHg 32%
16:00 +21°C° 0 mm 3 m/s 748 mmHg 36%
17:00 +20°C° 0 mm 2 m/s 748 mmHg 39%
18:00 +19°C° 0 mm 2 m/s 748 mmHg 43%
19:00 +18°C° 0 mm 2 m/s 748 mmHg 51%
20:00 +16°C° 0 mm 2 m/s 748 mmHg 60%
21:00 +14°C° 0 mm 2 m/s 748 mmHg 69%
22:00 +14°C° 0.1 mm 2 m/s 748 mmHg 71%
23:00 +14°C° 0.1 mm 2 m/s 748 mmHg 73%

Depois de amanhã, 16 Abril, Sexta-feira

Tempo Temperatura Precipitação Vento Pressão Humidade
00:00 +13°C° 0.1 mm 1 m/s 748 mmHg 75%
01:00 +13°C° 0 mm 1 m/s 748 mmHg 76%
02:00 +13°C° 0 mm 1 m/s 748 mmHg 77%
03:00 +12°C° 0 mm 1 m/s 749 mmHg 78%
04:00 +12°C° 0 mm 1 m/s 749 mmHg 78%
05:00 +12°C° 0 mm 1 m/s 749 mmHg 79%
06:00 +12°C° 0 mm 2 m/s 749 mmHg 80%
07:00 +13°C° 0 mm 2 m/s 749 mmHg 75%
08:00 +14°C° 0 mm 2 m/s 749 mmHg 70%
09:00 +15°C° 0 mm 2 m/s 749 mmHg 65%
10:00 +16°C° 0 mm 2 m/s 749 mmHg 61%
11:00 +18°C° 0 mm 1 m/s 750 mmHg 57%
12:00 +19°C° 0 mm 1 m/s 750 mmHg 52%
13:00 +18°C° 0.1 mm 2 m/s 750 mmHg 49%
14:00 +19°C° 0.1 mm 2 m/s 749 mmHg 47%
15:00 +19°C° 0.1 mm 3 m/s 749 mmHg 44%
16:00 +18°C° 0.3 mm 3 m/s 749 mmHg 50%
17:00 +18°C° 0.3 mm 3 m/s 749 mmHg 55%
18:00 +17°C° 0.3 mm 2 m/s 749 mmHg 61%
19:00 +16°C° 0.6 mm 2 m/s 750 mmHg 67%
20:00 +15°C° 0.6 mm 2 m/s 750 mmHg 73%
21:00 +14°C° 0.6 mm 1 m/s 750 mmHg 79%
22:00 +13°C° 0.2 mm 2 m/s 750 mmHg 78%
23:00 +13°C° 0.2 mm 2 m/s 750 mmHg 77%

17 Abril, Sábado

Tempo Temperatura Precipitação Vento Pressão Humidade
00:00 +13°C° 0.2 mm 2 m/s 750 mmHg 76%
01:00 +13°C° 0 mm 2 m/s 750 mmHg 77%
02:00 +12°C° 0 mm 2 m/s 750 mmHg 79%
03:00 +12°C° 0 mm 2 m/s 750 mmHg 81%
04:00 +12°C° 0 mm 2 m/s 750 mmHg 81%
05:00 +10°C° 0 mm 2 m/s 750 mmHg 82%
06:00 +10°C° 0 mm 2 m/s 750 mmHg 82%
07:00 +11°C° 0 mm 3 m/s 750 mmHg 77%
08:00 +12°C° 0 mm 3 m/s 750 mmHg 73%
09:00 +13°C° 0 mm 3 m/s 750 mmHg 68%
10:00 +14°C° 0.1 mm 4 m/s 750 mmHg 64%
11:00 +15°C° 0.1 mm 5 m/s 750 mmHg 59%
12:00 +16°C° 0.1 mm 5 m/s 750 mmHg 55%
13:00 +15°C° 0.6 mm 5 m/s 750 mmHg 62%
14:00 +13°C° 0.6 mm 6 m/s 751 mmHg 70%
15:00 +10°C° 0.6 mm 6 m/s 751 mmHg 78%
16:00 +11°C° 1.2 mm 4 m/s 751 mmHg 80%
17:00 +10°C° 1.2 mm 3 m/s 751 mmHg 82%
18:00 +10°C° 1.2 mm 2 m/s 751 mmHg 84%
19:00 +10°C° 0.5 mm 2 m/s 751 mmHg 85%
20:00 +9°C° 0.5 mm 2 m/s 751 mmHg 87%
21:00 +10°C° 0.5 mm 1 m/s 752 mmHg 88%
22:00 +9°C° 0.4 mm 2 m/s 752 mmHg 89%
23:00 +9°C° 0.4 mm 2 m/s 752 mmHg 90%

18 Abril, Domingo

Tempo Temperatura Precipitação Vento Pressão Humidade
00:00 +8°C° 0.4 mm 2 m/s 752 mmHg 91%
01:00 +8°C° 0.6 mm 2 m/s 752 mmHg 91%
02:00 +9°C° 0.6 mm 1 m/s 752 mmHg 90%
03:00 +9°C° 0.6 mm 1 m/s 752 mmHg 90%
04:00 +8°C° 0 mm 2 m/s 753 mmHg 86%
05:00 +8°C° 0 mm 3 m/s 753 mmHg 82%
06:00 +7°C° 0 mm 4 m/s 753 mmHg 77%
07:00 +7°C° 0 mm 4 m/s 753 mmHg 72%
08:00 +7°C° 0 mm 5 m/s 753 mmHg 67%
09:00 +7°C° 0 mm 5 m/s 754 mmHg 62%
10:00 +9°C° 0 mm 5 m/s 754 mmHg 56%
11:00 +10°C° 0 mm 6 m/s 754 mmHg 50%
12:00 +13°C° 0 mm 6 m/s 754 mmHg 44%
13:00 +13°C° 0 mm 6 m/s 754 mmHg 41%
14:00 +14°C° 0 mm 6 m/s 754 mmHg 39%
15:00 +14°C° 0 mm 6 m/s 754 mmHg 36%
16:00 +14°C° 0 mm 6 m/s 754 mmHg 38%
17:00 +13°C° 0 mm 6 m/s 754 mmHg 41%
18:00 +13°C° 0 mm 5 m/s 754 mmHg 43%
19:00 +12°C° 0 mm 5 m/s 755 mmHg 47%
20:00 +9°C° 0 mm 5 m/s 755 mmHg 51%
21:00 +8°C° 0 mm 5 m/s 755 mmHg 55%
22:00 +8°C° 0 mm 5 m/s 756 mmHg 59%
23:00 +7°C° 0 mm 4 m/s 756 mmHg 63%

19 Abril, Segunda-feira

Tempo Temperatura Precipitação Vento Pressão Humidade
00:00 +7°C° 0 mm 3 m/s 756 mmHg 67%
01:00 +6°C° 0 mm 4 m/s 756 mmHg 69%
02:00 +5°C° 0 mm 4 m/s 757 mmHg 72%
03:00 +5°C° 0 mm 4 m/s 757 mmHg 75%
04:00 +5°C° 0 mm 4 m/s 757 mmHg 75%
05:00 +5°C° 0 mm 4 m/s 758 mmHg 76%
06:00 +4°C° 0 mm 4 m/s 758 mmHg 76%
07:00 +5°C° 0 mm 5 m/s 758 mmHg 69%
08:00 +6°C° 0 mm 5 m/s 758 mmHg 62%
09:00 +7°C° 0 mm 6 m/s 759 mmHg 56%
10:00 +8°C° 0 mm 6 m/s 759 mmHg 51%
11:00 +9°C° 0 mm 6 m/s 759 mmHg 46%
12:00 +10°C° 0 mm 6 m/s 759 mmHg 41%
13:00 +10°C° 0 mm 6 m/s 759 mmHg 38%
14:00 +10°C° 0 mm 6 m/s 759 mmHg 34%
15:00 +11°C° 0 mm 6 m/s 759 mmHg 31%
16:00 +10°C° 0 mm 5 m/s 759 mmHg 33%
17:00 +10°C° 0 mm 5 m/s 759 mmHg 35%
18:00 +9°C° 0 mm 5 m/s 759 mmHg 37%
19:00 +8°C° 0 mm 5 m/s 760 mmHg 42%
20:00 +7°C° 0 mm 5 m/s 760 mmHg 46%
21:00 +5°C° 0 mm 4 m/s 760 mmHg 50%
22:00 +5°C° 0 mm 4 m/s 760 mmHg 52%
23:00 +4°C° 0 mm 4 m/s 760 mmHg 55%
Mostrar mais

Necessitamos do seu Consentimento

A Meteoprog e os seus Fornecedores de Serviços podem armazenar e aceder a dados pessoais como cookies, identificadores do dispositivo ou outras tecnologias semelhantes existentes no seu dispositivo e processar estes dados para personalizar conteúdos e anúncios, assim como funcionalidades nas redes sociais e análise de tráfego.

  • Armazenar e/ou aceder a informações no seu dispositivo

    Os cookies, identificadores do dispositivo ou outras informações podem ser armazenados ou acedidos no seu dispositivo, para os fins acima indicados.

  • Anúncios e conteúdos personalizados, medição de anúncios e conteúdos, dados sobre o público-alvo e desenvolvimento de produtos

    Os anúncios e os conteúdos podem ser personalizados com base num perfil. Podem ser adicionados dados adicionais para uma maior personalização dos anúncios e dos conteúdos. A eficácia dos anúncios e dos conteúdos pode ser medida. Podem ser obtidas informações sobre o público que visualizou os anúncios e os conteúdos. Estes dados podem ser usados para desenvolver ou melhorar sistemas, softwares ou a experiência do utilizador.

Ao clicar em "Eu concordo”, permitirá o uso de cookies, identificadores do dispositivo e web beacons mencionados ou outras tecnologias semelhantes. As configurações do navegador do seu dispositivo podem ser alteradas.

Para certos fins, podem ser invocados interesses legítimos ao invés de consentimento. Pode ler mais informação sobre este assunto na nossa Política de Privacidade e Cookies.